Regional Weather Roundup
Issued by NWS Upton, NY

Current Version | Previous Version | Graphics & Text | Print | Product List | Glossary Off
Versions: 1 2 3 4 5 6 7 8 9 10 11 12 13 14 15 16 17 18 19 20 21 22 23 24 25 26 27 28 29 30 31 32 33 34 35 36 37 38 39 40 41 42 43 44 45 46 47 48 49 50

000
ASUS41 KOKX 261508
RWROKX

REGIONAL WEATHER ROUNDUP
NATIONAL WEATHER SERVICE NEW YORK NY
1000 AM EST SUN FEB 26 2017

NOTE: "FAIR" INDICATES FEW OR NO CLOUDS BELOW 12,000 FEET WITH NO
SIGNIFICANT WEATHER AND/OR OBSTRUCTIONS TO VISIBILITY.

NYZ071-072-176-178-NJZ106-104-261600-
NEW YORK CITY METRO AREA

CITY           SKY/WX    TMP DP  RH WIND       PRES   REMARKS
Central Park   PTSUNNY   37  17  44 W14G24    30.00R WCI  28
Wall St Helipt NOT AVBL
LaGuardia APRT SUNNY     40  18  41 NW24G33   29.98R WCI  29
Kennedy INTL   PTSUNNY   40  20  44 NW23G30   29.99R WCI  30
Breezy Point     N/A     37 N/A N/A NW15G22     N/A  WCI  28
Newark/Liberty PTSUNNY   39  16  39 W18G28    30.00R WCI  30
Teterboro      PTSUNNY   38  17  42 NW21G31   29.98R WCI  28
$$

NYZ177-179-078>081-261600-
LONG ISLAND NEW YORK

CITY           SKY/WX    TMP DP  RH WIND       PRES   REMARKS
Jones Beach      N/A     37 N/A N/A NW22        N/A  WCI  27
Matinecock PT    N/A     37 N/A N/A NW28G33     N/A  WCI  25
Farmingdale    MOSUNNY   39  17  41 NW17G25   29.96R WCI  30
MacArthur/ISP  PTSUNNY   38  19  46 NW22G29   29.94R WCI  27
Shirley        MOSUNNY   39  19  44 W20G32    29.95R WCI  29
Westhampton    PTSUNNY   39  19  44 NW17G26   29.94R WCI  30
Southampton    NOT AVBL
Bridgehampton  NOT AVBL
East Hampton   CLOUDY    38  20  50 NW12G23   29.91R WCI  30
Montauk          N/A     39  22  50 NW16G26   29.91R WCI  30
$$

NYZ052-065-067-261600-
HUDSON VALLEY

CITY           SKY/WX    TMP DP  RH WIND       PRES   REMARKS
White Plains   PTSUNNY   36  17  46 NW22G28   29.94R WCI  25
Newburgh       PTSUNNY   34  18  51 N14G23    29.98R WCI  24
Montgomery     CLOUDY    34  17  50 NW15G28   29.97R WCI  24
Poughkeepsie   PTSUNNY   35  14  42 NW14G26   29.97R WCI  26
Albany         PTSUNNY   34  19  54 W25G37    29.95R WCI  21
$$

NJZ001-105-106-008-010-013-015-019>022-104-261600-
NEW JERSEY

CITY           SKY/WX    TMP DP  RH WIND       PRES   REMARKS
Newark/Liberty PTSUNNY   39  16  39 W18G28    30.00R WCI  30
Teterboro      PTSUNNY   38  17  42 NW21G31   29.98R WCI  28
Caldwell       PTSUNNY   37  15  40 NW18G28   30.01R WCI  27
Somerville     CLOUDY    38  16  40 NW20G30   30.00R WCI  28
Linden         NOT AVBL
Sussex         CLOUDY    34  15  46 NW13G24   29.99R WCI  25
Andover          N/A     35  13  40 VRB6G24   29.99R WCI  30
Trenton        CLOUDY    38  18  44 W13G20    30.02R WCI  30
Millville      CLOUDY    38  19  46 NW17G28   30.08R WCI  28
Atlantic City  PTSUNNY   38  18  44 NW20G31   30.05R WCI  28
Wrightstown    PTSUNNY   38  19  45 W15G21    30.01R WCI  29
Toms River     CLOUDY    38  19  46 NW20G28   30.03R WCI  28
Belmar         PTSUNNY   39  18  42 NW15G24   30.01R WCI  31
$$

PAZ047>061-062-071-261600-
EASTERN PENNSYLVANIA

CITY           SKY/WX    TMP DP  RH WIND       PRES   REMARKS
Philadelphia   PTSUNNY   38  14  37 W22G30    30.08R WCI  27
Allentown      CLOUDY    36  17  46 W15G24    30.03R WCI  27
Scranton       CLOUDY    32  17  54 NW18      30.01R WCI  20
$$

CTZ002-004>006-009-010-012-RIZ004-006-007-MAZ004-011-015-261600-
SOUTHERN NEW ENGLAND
 IN CT

CITY           SKY/WX    TMP DP  RH WIND       PRES   REMARKS
Bradley INTL   PTSUNNY   37  16  42 NW25G33   29.91R WCI  25
Hartford       PTSUNNY   39  17  41 NW15G29   29.92R WCI  31
Danbury        MOSUNNY   34  14  43 W17G31    29.95R WCI  23
Wtrbury/Oxford PTSUNNY   36  16  44 NW13G25   29.91R WCI  27
Bridgeport     MOSUNNY   41  16  36 NW18G28   29.93R
Meriden        CLOUDY    39  18  42 NW16G25   29.92R WCI  30
New Haven      PTSUNNY   38  20  48 W12G24    29.92R WCI  30
Chester          N/A     37  16  41 W10G30    29.89R WCI  30
Groton         MOSUNNY   41  19  41 NW22G30   29.88R
Wilimantic     CLOUDY    38  18  44 W18G28    29.89R WCI  28

 IN RI

CITY           SKY/WX    TMP DP  RH WIND       PRES   REMARKS
Providence     PTSUNNY   40  18  41 NW13G22   29.86R WCI  32
Block Island   MOSUNNY   40  21  46 W16G26    29.88R WCI  31
Westerly       MOSUNNY   41  16  36 NW13G23   29.88R
 IN MA

CITY           SKY/WX    TMP DP  RH WIND       PRES   REMARKS
Boston         MOSUNNY   41  20  43 W13G26    29.80R
Worcester      PTSUNNY   33  16  49 W23G32    29.80R WCI  21
Westfield      CLOUDY    35  17  47 NW23G30   29.89R WCI  23
Provincetown   SUNNY     40  23  50 NW23G31   29.80R WCI  30
Nantucket      SUNNY     41  20  43 NW23G33   29.83R
$$

ANZ330-335-338-340-345-350-353-355-261600-
COASTAL MARINE OBSERVATIONS


STATION/POSITION TIME  SKY/WX   TEMP    WIND        PRES    VSBY  WAVE
                                AIR SEA DIR/SP/G                  HT/PER
                 (UTC)          (F)     (DEG/KT/KT) (MB)    (MI)  (FT/S)
NY HARB ENTRANCE 1350            38 43  290/ 21/ 27 1013.7          4/ 5
20 S FIRE ISLAND 1450            38 43  310/ 19/ 25 1014.2          6/ 6
GREAT SOUTH BAY  NOT AVBL
23 SSW MONTAUK P 1350            39 44              1012.0          6/10
15 E BARNEGAT LI 1430               44                N/A           5/11
HUDSON CANYON    1350               48              1013.6          9/ 7
KINGS POINT      1436            37 40              1014.8
EXECUTION ROCKS  NOT AVBL
CENTRAL LI SOUND 1415            38     290/ 19/ 23   N/A           3/ 5
EASTERN LI SOUND NOT AVBL
ROBBINS REEF     1436            37     310/ 25/ 31 1015.4
$$


>>>>>>>>>>>>>>>>>>>>>>>>>>>> KEY <<<<<<<<<<<<<<<<<<<<<<<<<<<
>                                                          <
>     SKY/WX - Sky Condition/Present Weather               <
>     TMP    - Temperature in Fahrenheit                   <
>     DP     - Dew Point in Fahrenheit                     <
>     RH     - Relative Humidity in Percent                <
>     WIND   - Direction (from) and Speed in MPH           <
>     PRES   - Mean Sea Level Pressure (inches of Hg)      <
>     WCI    - Wind Chill Index                            <
>     VSB    - VISIBILITY IN MILES                         <
>     HX     - HEAT INDEX                                  <
>     TC     - TEMPERATURE IN CELSIUS                      <
>     VRB    - VARIABLE WIND DIRECTION                     <
>                                                          <
>>>>>>>>>>>>>>>>>>>>>>>>>>>> KEY <<<<<<<<<<<<<<<<<<<<<<<<<<<



USA.gov is the U.S. government's official web portal to all federal, state and local government web resources and services.